Погода в Ташире

Армения     41°07′14″N   44°16′56″E
темп.,
°C
ветер,
м/с
пор.,
м/с
влажн.,
%
обл.,
%
осадки,
мм/ч
давл.,
гПа
погр.,
м
2 марта, вт
вт201:00−7ссз1297100 1.9 102851
04:00−10сз1296100 2.3 102921
07:00−11з1193100 0.1 103021
10:00−7зюз0090100 0.1 102986
13:00−4в118683 0.0 1027450
16:00−3в018190 0.1 1026521
19:00−9зюз128572 0.0 102721
22:00−11зюз227138 0.0 102921
3 марта, ср
ср301:00−11зюз33740 0.0 102821
04:00−11зюз33790 0.0 102724
07:00−11зюз33847 0.0 102634
10:00−6юз348812 0.0 1024188
13:00−3юз358319 0.0 1020527
16:00−2зюз247722 0.0 1018852
19:00−8зюз337517 0.0 102121
22:00−10зюз33759 0.0 102422
4 марта, чт
чт401:00−12зюз33740 0.0 102524
04:00−12зюз33720 0.0 102727
07:00−13зюз33670 0.0 102823
10:00−7зюз22730 0.0 102875
13:00−4всв21660 0.0 1026387
16:00−4ссв12680 0.0 1023551
19:00−10ссв229010 0.0 102521
22:00−9с129655 0.1 102634
5 марта, пт
пт501:00−9с1196100 0.1 102526
04:00−9с2297100 0.3 102333
07:00−10зсз1194100 0.1 102322
10:00−6зюз0187100 0.1 1022105
13:00−3св0188100 0.0 1019236
16:00−1ю118954 0.0 1018247
19:00−7зюз33675 0.0 102121
22:00−8зюз33563 0.0 102524
6 марта, сб
сб601:00−8зюз33620 0.0 102626
04:00−8юз44610 0.0 102631
07:00−9юз44570 0.0 102734
10:00−5юз44663 0.0 102693
13:00−1юз45720 0.0 1022196
16:00−1юз457229 0.0 1020187
19:00−4юз4465100 0.0 102037
22:00−5зюз4464100 0.0 102139